User: anonymous   Login
Location: Unspecified
(0.0000°N, 0.0000°E)
Time: 19:50:44
(UTC+02:00)
Language:

AO-40 - Orbit

View from above orbital plane
View from above orbital plane
View from above satellite
View from above satellite

Ground track
Ground track

The orbit data is extracted from the following two-line orbital elements,

1 26609U 00072B   16175.58991076 -.00000231  00000-0  00000+0 0  9993
2 26609   8.1094 297.4931 7976614 351.4405   0.4139  1.25587267 71833
Epoch (UTC): 23 June 2016 14:09:28
Eccentricity: 0.7976614
inclination: 8.1094°
perigee height: 964 km
apogee height: 58856 km
right ascension of ascending node: 297.4931°
argument of perigee: 351.4405°
revolutions per day: 1.25587267
mean anomaly at epoch: 0.4139°
orbit number at epoch: 7183

The dashed part of the orbit path shows where the satellite is in the earth's shadow,  

DLR